Weather History for Jesup, GA

Change the Weather History Date:

Wednesday, January 1, 2014

  Actual Average (KLHW) Record (KLHW)
Temperature  
Mean Temperature 48 °F -  
Max Temperature 51 °F 65 °F 79 °F (1972)
Min Temperature 44 °F 44 °F 26 °F (1984)
Degree Days  
Heating Degree Days 18    
Moisture  
Dew Point 48 °F    
Average Humidity 95    
Maximum Humidity 100    
Minimum Humidity 81    
Precipitation  
Precipitation 0.00 in - - ()
Sea Level Pressure  
Sea Level Pressure 30.28 in    
Wind  
Wind Speed 1 mph (NE)    
Max Wind Speed 5 mph    
Max Gust Speed -    
Visibility 7 miles    
Events Rain    
Averages and records for this station are not official NWS values.
T = Trace of Precipitation, MM = Missing Value Source: NWS Daily Summary

Daily Weather History Graph

Daily Weather History Graph

Search for Another Location

Airport:

Trip Planner

Search our weather history database for the weather conditions in past years. The results will help you decide how hot, cold, wet, or windy it might be!

Date:

Astronomy

Jan. 01, 2014 Rise Set
Actual Time 7:27 AM EST 5:35 PM EST
Civil Twilight 7:00 AM EST 6:02 PM EST
Nautical Twilight 6:30 AM EST 6:32 PM EST
Astronomical Twilight 6:00 AM EST 7:02 PM EST
Moon 7:20 AM EST (1/1) 6:14 PM EST (1/1)
Length of Visible Light 11h 01m
Length of Day
10h 08m
New Moon, 0% of the Moon is Illuminated
Jan 1
New Moon
Jan 7
First Quarter
Jan 15
Full
Jan 24
Last Quarter
Jan 30
New

Hourly Weather History & Observations

Time (EST) Temp. Windchill Dew Point Humidity Pressure Visibility Wind Dir Wind Speed Gust Speed Precip Events Conditions
12:15 AM 46.4 °F - 42.8 °F 87% 30.36 in 10.0 mi Calm Calm - N/A   Clear
12:35 AM 46.4 °F - 42.8 °F 87% 30.35 in 10.0 mi Calm Calm - N/A   Clear
12:55 AM 46.4 °F - 42.8 °F 87% 30.34 in 10.0 mi Calm Calm - N/A   Clear
1:15 AM 46.4 °F 45.2 °F 42.8 °F 87% 30.35 in 10.0 mi NNE 3.5 mph - N/A   Scattered Clouds
1:35 AM 46.4 °F - 42.8 °F 87% 30.35 in 10.0 mi Calm Calm - N/A   Scattered Clouds
1:55 AM 46.4 °F 45.2 °F 42.8 °F 87% 30.35 in 10.0 mi NNE 3.5 mph - N/A   Scattered Clouds
2:15 AM 46.4 °F 45.2 °F 41.0 °F 81% 30.36 in 10.0 mi North 3.5 mph - N/A   Mostly Cloudy
2:35 AM 46.4 °F - 42.8 °F 87% 30.36 in 10.0 mi Calm Calm - N/A   Light Drizzle
2:55 AM 46.4 °F - 42.8 °F 87% 30.34 in 10.0 mi Calm Calm - N/A   Mostly Cloudy
3:15 AM 44.6 °F - 42.8 °F 93% 30.33 in 10.0 mi Calm Calm - N/A   Scattered Clouds
3:35 AM 44.6 °F - 42.8 °F 93% 30.34 in 10.0 mi Calm Calm - N/A   Scattered Clouds
3:55 AM 46.4 °F - 42.8 °F 87% 30.34 in 10.0 mi Calm Calm - N/A   Mostly Cloudy
4:15 AM 44.6 °F 43.1 °F 42.8 °F 93% 30.32 in 10.0 mi NNE 3.5 mph - N/A   Overcast
4:35 AM 46.4 °F - 42.8 °F 87% 30.33 in 10.0 mi Calm Calm - N/A   Overcast
4:55 AM 46.4 °F - 42.8 °F 87% 30.33 in 10.0 mi Calm Calm - N/A   Overcast
5:15 AM 46.4 °F - 42.8 °F 87% 30.32 in 10.0 mi Calm Calm - N/A   Overcast
5:35 AM 46.4 °F - 42.8 °F 87% 30.32 in 10.0 mi Calm Calm - N/A   Overcast
5:55 AM 44.6 °F - 42.8 °F 93% 30.32 in 10.0 mi Calm Calm - N/A   Overcast
6:15 AM 46.4 °F - 42.8 °F 87% 30.32 in 10.0 mi Calm Calm - N/A   Overcast
6:35 AM 46.4 °F - 42.8 °F 87% 30.33 in 10.0 mi Calm Calm - N/A   Overcast
6:55 AM 46.4 °F - 42.8 °F 87% 30.33 in 10.0 mi Calm Calm - N/A   Overcast
7:15 AM 46.4 °F - 44.6 °F 93% 30.33 in 10.0 mi Calm Calm - N/A Rain Light Rain
7:35 AM 46.4 °F 45.2 °F 44.6 °F 93% 30.33 in 10.0 mi NE 3.5 mph - N/A   Overcast
7:55 AM 46.4 °F - 44.6 °F 93% 30.33 in 10.0 mi Calm Calm - N/A   Overcast
8:15 AM 46.4 °F - 44.6 °F 93% 30.33 in 10.0 mi Calm Calm - N/A   Light Drizzle
8:35 AM 46.4 °F - 44.6 °F 93% 30.34 in 10.0 mi Calm Calm - N/A   Overcast
8:55 AM 46.4 °F 45.2 °F 44.6 °F 93% 30.34 in 10.0 mi ENE 3.5 mph - N/A   Overcast
9:15 AM 46.4 °F - 44.6 °F 93% 30.33 in 10.0 mi Calm Calm - N/A   Drizzle
9:35 AM 46.4 °F 45.2 °F 46.4 °F 100% 30.34 in 10.0 mi NE 3.5 mph - N/A   Light Drizzle
9:55 AM 46.4 °F - 46.4 °F 100% 30.34 in 10.0 mi Calm Calm - N/A Rain Light Rain
10:15 AM 48.2 °F - 46.4 °F 93% 30.34 in 10.0 mi NE 4.6 mph - N/A   Light Drizzle
10:35 AM 48.2 °F - 46.4 °F 93% 30.34 in 10.0 mi Calm Calm - N/A   Overcast
10:55 AM 48.2 °F - 48.2 °F 100% 30.34 in 10.0 mi Calm Calm - N/A Rain Light Rain
11:15 AM 50.0 °F - 48.2 °F 94% 30.33 in 7.0 mi Calm Calm - N/A Rain Rain
11:35 AM 50.0 °F - 50.0 °F 100% 30.32 in 10.0 mi Calm Calm - N/A Rain Light Rain
11:55 AM 50.0 °F - 50.0 °F 100% 30.31 in 10.0 mi East 3.5 mph - N/A Rain Light Rain
12:15 PM 50.0 °F - 50.0 °F 100% 30.29 in 10.0 mi ENE 3.5 mph - N/A Rain Light Rain
12:35 PM 50.0 °F - 50.0 °F 100% 30.29 in 10.0 mi Calm Calm - N/A Rain Light Rain
12:55 PM 50.0 °F - 50.0 °F 100% 30.28 in 7.0 mi Calm Calm - N/A   Drizzle
1:15 PM 50.0 °F - 50.0 °F 100% 30.27 in 5.0 mi Calm Calm - N/A Rain Rain
1:55 PM 50.0 °F - 50.0 °F 100% 30.25 in 5.0 mi Calm Calm - N/A Rain Light Rain
2:35 PM 50.0 °F - 50.0 °F 100% 30.24 in 4.0 mi Calm Calm - N/A Rain Light Rain
2:55 PM 50.0 °F - 50.0 °F 100% 30.24 in 4.0 mi Calm Calm - N/A Rain Rain
3:15 PM 51.8 °F - 51.8 °F 100% 30.24 in 4.0 mi Calm Calm - N/A Rain Light Rain
3:35 PM 51.8 °F - 51.8 °F 100% 30.24 in 3.0 mi Calm Calm - N/A Rain Rain
3:55 PM 51.8 °F - 51.8 °F 100% 30.24 in 1.8 mi Calm Calm - N/A Rain Rain
4:15 PM 51.8 °F - 51.8 °F 100% 30.23 in 1.8 mi Calm Calm - N/A Rain Rain
4:35 PM 51.8 °F - 51.8 °F 100% 30.24 in 1.5 mi Calm Calm - N/A Rain Light Rain
4:55 PM 51.8 °F - 51.8 °F 100% 30.23 in 2.0 mi Calm Calm - N/A Rain Rain
5:15 PM 51.8 °F - 51.8 °F 100% 30.23 in 2.0 mi Calm Calm - N/A Rain Light Rain
5:35 PM 51.8 °F - 51.8 °F 100% 30.22 in 1.8 mi Calm Calm - N/A   Drizzle
5:55 PM 51.8 °F - 51.8 °F 100% 30.22 in 3.0 mi Calm Calm - N/A Rain Rain
6:15 PM 51.8 °F - 51.8 °F 100% 30.21 in 4.0 mi Calm Calm - N/A Rain Rain
6:35 PM 51.8 °F - 51.8 °F 100% 30.22 in 4.0 mi Calm Calm - N/A Rain Rain
6:55 PM 51.8 °F - 51.8 °F 100% 30.22 in 7.0 mi Calm Calm - N/A   Overcast
7:15 PM 51.8 °F - 51.8 °F 100% 30.22 in 7.0 mi Calm Calm - N/A   Overcast
7:35 PM 51.8 °F - 51.8 °F 100% 30.21 in 7.0 mi Calm Calm - N/A Rain Light Rain
7:55 PM 51.8 °F - 51.8 °F 100% 30.20 in 7.0 mi Calm Calm - N/A   Overcast
8:15 PM 51.8 °F - 51.8 °F 100% 30.20 in 7.0 mi Calm Calm - N/A   Overcast
8:35 PM 51.8 °F - 51.8 °F 100% 30.20 in 7.0 mi Calm Calm - N/A Rain Light Rain
8:55 PM 51.8 °F - 51.8 °F 100% 30.19 in 5.0 mi Calm Calm - N/A Rain Light Rain
9:15 PM 51.8 °F - 51.8 °F 100% 30.18 in 4.0 mi ESE 3.5 mph - N/A   Light Drizzle
9:35 PM 51.8 °F - 51.8 °F 100% 30.16 in 5.0 mi ESE 3.5 mph - N/A   Drizzle
9:55 PM 51.8 °F - 51.8 °F 100% 30.17 in 5.0 mi Calm Calm - N/A Rain Light Rain
10:15 PM 51.8 °F - 51.8 °F 100% 30.16 in 5.0 mi Calm Calm - N/A   Overcast
10:35 PM 51.8 °F - 51.8 °F 100% 30.16 in 7.0 mi Calm Calm - N/A   Overcast
10:55 PM 51.8 °F - 51.8 °F 100% 30.15 in 5.0 mi Calm Calm - N/A   Drizzle
11:15 PM 51.8 °F - 51.8 °F 100% 30.15 in 4.0 mi Calm Calm - N/A Rain Light Rain
11:35 PM 51.8 °F - 51.8 °F 100% 30.15 in 4.0 mi Calm Calm - N/A Rain Rain
11:55 PM 51.8 °F - 51.8 °F 100% 30.14 in 4.0 mi Calm Calm - N/A Rain Rain